Weather in Alotau

Papua New Guinea     10°18′21″S   150°26′53″E
temp.,
°C
wind,
m/s
gust,
m/s
humid.,
%
clouds,
%
prec.,
mm/h
press.,
hPa
HPBL,
m
14 june, mon
mon1401:00+24n238496 0.0 1011350
04:00+24n238651 0.0 1011279
07:00+25nnw118377 0.0 1012296
10:00+28ne116869 0.1 1013812
13:00+28ene236841 0.0 1010970
16:00+27ese347523 0.1 1009747
19:00+25ese3690100 0.1 1011360
22:00+25e139069 0.4 1012242
15 june, tue
tue1501:00+25se129117 0.1 1011154
04:00+24ese119111 0.2 101097
07:00+25sse129013 0.1 1012145
10:00+27ese358313 1.7 1012656
13:00+28ese457117 0.6 1010897
16:00+27se57765 0.6 1010768
19:00+25se36899 0.2 1012392
22:00+25se369123 1.0 1013404
16 june, wed
wed1601:00+25se3791100 1.4 1012417
04:00+25ese479071 2.1 1011441
07:00+25se369020 0.1 1013419
10:00+26se478395 1.1 1013673
13:00+28ese467523 0.9 1011909
16:00+27se457733 1.4 1011793
19:00+25se369170 0.3 1013403
22:00+25se368928 0.7 1014412
17 june, thu
thu1701:00+24se3592100 0.4 1012308
04:00+24se3591100 0.6 1012330
07:00+25se3591100 0.4 1013332
10:00+26se478938 2.9 1013586
13:00+26se478999 6.0 1011595
16:00+25se4690100 14.1 1010436
19:00+24se4792100 8.4 1012275
22:00+24se3593100 12.9 1013202
18 june, fri
fri1801:00+24se3592100 4.6 1011189
04:00+24sse3492100 8.1 1011181
07:00+24sse349113 2.4 1013183
10:00+25se3689100 6.2 1013493
13:00+25se3590100 3.8 1011408
16:00+24se3592100 7.1 1010249
19:00+24sse349397 2.3 1012194
22:00+24sse249186 2.4 1013242